Dewpoint
30 25 23 24 24 20 20 20 19 24 25 23 21 21 30 34 33 33 39 42 43 46 47 48 48 48 51 51 52 53 52 53 57 57 56 57 57 58 56 56 56 58 58 58
25 25 24 19 21 22 21 21 19 22 20 21 23 21 23 33 33 32 37 41 41 41 43 43 44 47 49 48 50 51 52 54 55 57 57 58 58 57 56 56 56 57 57 57
20 21 24 18 20 21 23 24 24 23 22 22 20 20 21 36 40 38 38 39 39 38 40 41 45 44 46 46 48 50 53 53 55 56 58 57 56 55 55 55 56 56 57 58
17 19 20 23 26 21 18 21 20 19 18 15 20 16 25 41 42 42 40 42 43 40 39 38 42 42 44 45 48 52 51 53 55 55 55 54 53 52 54 55 56 56 57 57
19 22 23 20 22 19 17 21 19 22 16 18 21 21 27 41 39 40 42 41 42 41 36 35 37 39 41 41 42 50 50 53 51 54 55 52 52 53 55 55 54 55 55 56
19 20 20 18 20 18 21 20 26 29 23 21 22 23 29 37 39 41 43 42 43 40 35 36 38 39 37 38 46 51 50 51 51 51 51 52 52 51 51 51 50 48 50 53
24 21 16 16 14 20 17 27 25 24 24 23 27 30 32 40 42 40 41 41 40 36 33 34 36 34 37 43 46 49 48 48 50 51 51 50 50 49 48 48 45 46 47 48
17 20 18 18 15 17 21 23 28 19 21 20 29 31 34 40 40 38 37 35 36 35 36 34 34 37 40 46 47 47 48 48 50 50 49 49 49 48 46 44 45 47 47 47
28 25 18 16 16 19 29 29 32 27 33 25 25 36 38 39 39 38 38 37 37 37 35 34 37 40 43 47 47 48 48 48 48 48 48 47 46 44 44 44 44 44 44 45
31 26 27 18 14 15 23 31 29 34 25 24 27 31 33 37 38 38 39 37 38 37 34 36 37 39 45 46 48 49 48 47 47 47 46 44 43 43 44 45 43 43 44 45
24 26 25 19 17 12 20 19 26 35 33 26 24 27 34 37 39 39 39 39 38 34 34 36 38 44 47 48 49 49 48 47 46 44 42 42 42 43 43 42 41 41 43 44
28 28 25 25 27 25 24 24 30 31 27 32 32 29 36 37 39 39 37 40 41 34 35 39 45 47 48 48 49 48 47 44 42 41 41 41 42 42 40 40 42 43 43 44
30 28 22 17 17 28 24 24 19 32 32 31 28 30 37 39 38 39 38 37 34 37 40 44 46 47 48 48 47 45 43 41 40 40 40 41 41 40 41 41 42 43 43 44
39 30 26 25 25 28 24 26 26 27 30 28 32 30 37 38 37 37 36 37 37 39 43 45 46 47 48 46 44 42 41 39 39 39 40 40 40 41 41 41 42 43 44 45
29 27 28 28 30 32 30 27 25 23 26 26 26 28 36 37 36 36 37 37 38 41 44 46 46 46 45 43 41 40 38 39 38 39 40 39 40 41 41 43 44 44 45 45
32 30 31 30 33 32 31 32 32 27 24 22 25 34 37 38 38 37 37 38 40 41 45 46 46 45 42 40 39 37 37 37 37 39 39 39 40 41 42 43 43 44 44 45
31 33 31 29 34 32 27 30 30 28 36 29 30 35 38 37 36 36 36 41 40 45 46 46 44 43 40 39 37 36 36 37 39 38 39 40 41 41 42 43 43 42 42 43
34 35 36 32 34 28 30 33 32 38 40 37 36 36 36 37 37 36 39 40 45 46 45 44 42 40 38 37 36 36 37 36 38 38 39 40 41 41 42 42 42 42 42 41
31 33 30 27 32 31 30 31 36 37 40 42 37 36 35 35 36 35 43 46 46 45 45 43 41 39 36 35 35 37 38 38 39 39 39 39 40 41 41 41 41 41 41 41
35 35 30 30 26 24 36 41 42 40 37 44 39 38 39 36 32 34 45 46 44 44 43 41 39 37 35 35 37 37 38 38 38 38 38 39 40 40 40 41 41 41 41 41
34 37 32 31 28 31 41 43 42 32 35 43 37 35 34 33 35 39 46 45 44 42 41 39 36 35 36 38 38 37 37 38 38 38 38 38 39 39 40 40 40 40 40 40
33 34 33 33 29 27 42 42 35 41 43 39 37 36 35 35 37 45 45 44 43 41 38 36 35 34 37 39 38 37 37 39 39 38 37 37 38 39 39 39 39 39 39 39
35 37 37 36 36 41 43 39 45 44 41 40 36 35 35 36 39 44 44 43 41 39 37 36 34 35 38 38 38 37 38 39 38 37 37 37 38 38 39 38 38 39 39 38
38 42 40 39 42 41 42 44 44 43 40 37 34 36 38 38 43 44 44 42 40 38 36 35 34 36 36 39 39 39 39 39 38 37 37 37 37 37 37 39 38 38 38 38
37 35 33 34 42 44 43 43 44 44 41 35 37 39 38 41 44 44 43 41 39 36 35 35 35 36 38 40 40 41 40 39 38 37 37 37 37 37 37 37 36 37 37 36
37 39 34 33 36 38 39 37 36 34 34 37 40 40 40 43 45 44 42 41 38 36 35 34 36 38 39 40 40 40 39 39 38 37 36 36 37 37 36 35 35 36 35 34
Lifted_Index
6 6 6 6 5 5 5 5 5 5 5 5 4 4 4 4 3 3 3 3 3 3 3 2 2 2 2 3 3 2 2 2 1 1 1 1 1 2 3 3 3 3 3 3
6 6 6 6 6 6 5 5 5 5 5 4 4 4 4 4 3 3 3 3 2 2 2 2 2 2 2 3 3 3 2 2 2 1 1 1 2 2 3 3 3 3 3 3
6 6 6 6 6 6 5 5 4 4 4 4 4 4 3 3 3 3 2 2 1 1 2 2 2 2 2 3 3 3 3 2 2 1 1 2 3 3 3 3 3 3 3 3
6 6 6 6 6 6 5 5 4 4 3 3 3 3 3 3 3 2 2 1 1 1 1 2 2 2 3 3 3 3 3 3 2 2 2 3 4 4 4 4 3 3 3 3
6 6 6 6 6 6 5 5 4 4 3 3 3 3 3 2 2 2 1 1 0 1 1 2 2 2 3 3 3 3 3 3 3 3 3 4 4 4 5 5 5 5 5 4
5 6 6 6 6 6 6 5 4 3 3 3 3 3 3 2 2 1 1 0 0 1 2 2 2 2 2 2 2 2 3 3 3 4 4 4 5 5 6 7 7 7 7 6
4 5 5 5 6 6 5 4 3 2 2 2 2 3 2 2 1 1 1 1 1 1 2 2 2 2 2 2 2 2 3 3 4 4 5 5 5 6 7 8 9 9 8 8
4 4 4 5 5 5 5 4 2 1 1 2 2 2 2 1 1 1 1 1 1 1 2 2 2 2 2 2 2 3 3 4 4 5 5 6 7 7 8 9 9 9 9 8
3 3 4 5 5 4 4 3 2 2 1 1 2 2 1 1 1 1 1 1 1 1 2 2 3 2 2 2 3 3 4 4 5 6 7 8 8 8 9 9 9 9 9 9
3 3 4 4 4 4 3 3 2 2 1 1 1 1 1 1 1 1 1 1 1 1 2 2 2 2 2 2 3 4 5 5 6 7 8 8 9 9 9 10 10 10 10 10
3 3 3 3 3 3 3 3 2 2 1 1 1 1 1 1 1 1 1 1 1 1 2 2 2 2 2 2 3 4 6 7 7 8 9 9 9 10 10 11 12 12 11 11
3 3 3 3 3 2 2 2 2 2 1 1 2 2 1 1 1 1 1 1 2 2 2 2 2 2 2 3 4 5 6 7 8 9 9 10 10 11 12 13 14 13 12 11
3 3 3 3 3 2 2 2 2 2 2 2 2 2 1 0 0 1 1 2 2 2 2 2 2 2 2 3 5 6 7 8 9 9 10 10 11 12 13 13 14 13 12 11
2 2 3 3 3 2 2 2 2 2 2 2 2 2 1 1 1 1 1 2 2 2 2 2 2 2 3 4 6 7 8 9 9 10 11 11 12 13 13 13 13 12 10 9
2 2 3 3 3 2 2 1 1 1 1 2 2 1 1 1 1 1 1 1 2 2 2 2 3 3 4 5 7 8 9 9 10 11 11 12 12 12 12 12 11 10 9 8
2 2 2 2 2 2 2 1 1 1 1 1 1 1 1 1 1 1 1 2 2 2 2 3 4 4 5 6 7 8 9 10 11 11 11 12 12 11 11 10 9 8 7 7
1 1 1 1 2 2 2 1 1 1 0 1 1 1 1 1 1 2 2 2 2 3 3 4 4 5 6 7 8 9 10 11 11 12 11 11 11 10 10 9 8 7 7 6
1 1 1 1 1 2 2 1 0 -0 0 1 1 1 1 1 2 2 3 3 3 3 3 4 5 6 7 8 9 9 11 12 12 12 11 11 11 10 10 9 8 8 7 7
1 1 1 1 1 1 1 1 -0 -1 -0 0 0 0 0 1 2 3 3 3 3 3 4 5 6 7 8 9 9 10 12 13 13 12 12 12 11 11 10 10 9 9 8 8
1 1 1 1 1 2 1 0 -0 -0 -0 -0 -0 -0 0 1 1 2 3 3 3 4 4 5 6 8 9 9 10 11 12 13 13 13 12 12 12 12 11 10 10 10 9 9
1 1 1 1 2 2 1 0 0 0 0 0 -0 -0 0 1 2 3 3 3 4 4 5 6 7 8 9 10 10 11 12 13 14 14 13 13 13 12 12 11 11 10 10 9
1 1 1 1 2 2 1 1 1 0 0 0 0 1 2 3 3 3 3 4 4 5 6 6 7 8 9 11 11 12 13 14 14 14 13 13 13 13 12 12 11 11 10 10
1 1 1 1 1 1 2 2 1 1 1 1 1 2 3 3 4 4 4 4 4 5 6 7 7 8 10 11 13 13 14 15 15 14 13 13 13 13 13 12 12 12 12 12
0 0 0 0 0 1 2 2 2 2 2 2 2 3 3 4 4 3 4 4 5 5 6 7 8 9 10 12 14 14 15 15 15 14 13 13 13 13 13 13 13 13 14 14
0 0 0 0 0 1 2 2 2 2 2 3 3 3 3 3 3 3 3 4 5 6 7 7 8 9 11 13 14 15 16 16 15 15 14 14 14 14 15 15 15 15 15 15
0 0 0 0 1 1 2 2 2 2 3 3 4 4 4 3 3 3 3 4 5 6 7 8 8 10 12 14 15 15 16 16 15 15 15 16 16 16 16 16 16 16 16 16